This is the latest recevied weather packets stored in our database for station/object K0APR. If no packets are shown the sender has not sent any weather packets the latest 10 day(s).
| Time | Temp. | Humidity | Pressure | Rain* | Wind** | Luminosity | Snow |
|---|---|---|---|---|---|---|---|
| 1777415454 | 10° C | 55% | 1016.8 hPa | 0 mm | - | 152 W/m² | - |
| 1777415150 | 10° C | 54% | 1016.8 hPa | 0 mm | - | 137 W/m² | - |
| 1777414845 | 10° C | 53% | 1017.2 hPa | 0 mm | - | 163 W/m² | - |
| 1777414545 | 10° C | 53% | 1017.2 hPa | 0 mm | - | 173 W/m² | - |
| 1777414245 | 10° C | 55% | 1017.2 hPa | 0 mm | - | 256 W/m² | - |
| 1777413940 | 10° C | 54% | 1017.2 hPa | 0 mm | - | 138 W/m² | - |
| 1777413636 | 10° C | 55% | 1017.2 hPa | 0 mm | - | 144 W/m² | - |
| 1777413332 | 10° C | 55% | 1017.2 hPa | 0 mm | - | 165 W/m² | - |
| 1777413028 | 10° C | 53% | 1016.8 hPa | 0 mm | - | 190 W/m² | - |
| 1777412728 | 10° C | 53% | 1017.2 hPa | 0 mm | - | 208 W/m² | - |
| 1777412426 | 10° C | 53% | 1017.2 hPa | 0 mm | - | 237 W/m² | - |
| 1777412125 | 10° C | 53% | 1017.2 hPa | 0 mm | - | 223 W/m² | - |
| 1777411821 | 10° C | 54% | 1017.2 hPa | 0 mm | - | 241 W/m² | - |
| 1777411520 | 10° C | 53% | 1017.5 hPa | 0 mm | - | 208 W/m² | - |
| 1777411215 | 10.56° C | 55% | 1017.5 hPa | 0 mm | - | 224 W/m² | - |
| 1777410909 | 10° C | 53% | 1017.2 hPa | 0 mm | - | 232 W/m² | - |
| 1777410609 | 10° C | 54% | 1017.5 hPa | 0 mm | - | 201 W/m² | - |
| 1777410303 | 10° C | 56% | 1017.2 hPa | 0 mm | - | 170 W/m² | - |
| 1777409998 | 10° C | 55% | 1017.5 hPa | 0 mm | - | 166 W/m² | - |
| 1777409693 | 10° C | 54% | 1017.5 hPa | 0 mm | - | 198 W/m² | - |
| 1777409389 | 10° C | 53% | 1017.9 hPa | 0 mm | - | 208 W/m² | - |
| 1777409084 | 10° C | 53% | 1017.5 hPa | 0 mm | - | 250 W/m² | - |
| 1777408781 | 10° C | 55% | 1017.5 hPa | 0 mm | - | 324 W/m² | - |
| 1777408477 | 10° C | 55% | 1017.9 hPa | 0 mm | - | 221 W/m² | - |
| 1777408172 | 10.56° C | 53% | 1017.5 hPa | 0 mm | - | 397 W/m² | - |
* Rain latest hour (hover to see other rain measurements)
** Current wind speed in m/s (hover to see current wind gust speed)